| time (UTC) | temp C | wind direction | speed KPH | gust KPH | rain 1hr cm | rain 24hr cm | rain mn cm | humidity % | barometer mb |
| 20260502193031 | 15 | 256 | 0.0 | 0.0 | 0.00 | 0.00 | 0.00 | 84 | 1014.0 |
| 20260502191537 | 15 | 256 | 0.0 | 3.2 | 0.00 | 0.00 | 0.00 | 83 | 1014.0 |
| 20260502190031 | 15 | 256 | 0.0 | 3.2 | 0.00 | 0.00 | 0.00 | 83 | 1014.2 |
| 20260502184529 | 15 | 269 | 4.8 | 9.7 | 0.00 | 0.00 | 0.00 | 82 | 1014.3 |
| 20260502183029 | 16 | 117 | 0.0 | 0.0 | 0.00 | 0.00 | 0.00 | 81 | 1014.0 |
| 20260502181527 | 16 | 117 | 0.0 | 1.6 | 0.00 | 0.00 | 0.00 | 80 | 1014.1 |
| 20260502163036 | 18 | 98 | 6.4 | 14.5 | 0.00 | 0.00 | 0.00 | 70 | 1014.2 |
| 20260502161526 | 20 | 63 | 4.8 | 12.9 | 0.00 | 0.00 | 0.00 | 66 | 1014.3 |
| 20260502151510 | 22 | 214 | 4.8 | 17.7 | 0.00 | 0.00 | 0.00 | 50 | 1014.9 |
| 20260502123110 | 21 | 258 | 6.4 | 19.3 | 0.00 | 0.00 | 0.00 | 58 | 1016.8 |
| 20260502121550 | 20 | 295 | 9.7 | 22.5 | 0.00 | 0.00 | 0.00 | 58 | 1017.2 |
| 20260502114544 | 21 | 221 | 9.7 | 30.6 | 0.00 | 0.00 | 0.00 | 55 | 1017.5 |
| 20260502113049 | 20 | 197 | 9.7 | 25.7 | 0.00 | 0.00 | 0.00 | 55 | 1017.5 |
| 20260502111545 | 21 | 247 | 11.3 | 22.5 | 0.00 | 0.00 | 0.00 | 56 | 1017.7 |
| 20260502110042 | 21 | 271 | 6.4 | 22.5 | 0.00 | 0.00 | 0.00 | 55 | 1017.8 |
| 20260502104536 | 20 | 216 | 6.4 | 22.5 | 0.00 | 0.00 | 0.00 | 56 | 1018.0 |
| 20260502103034 | 20 | 281 | 6.4 | 19.3 | 0.00 | 0.00 | 0.00 | 55 | 1018.2 |
| 20260502101531 | 20 | 244 | 3.2 | 22.5 | 0.00 | 0.00 | 0.00 | 55 | 1018.3 |
| 20260502091525 | 18 | 225 | 4.8 | 16.1 | 0.00 | 0.00 | 0.00 | 54 | 1018.8 |
| 20260502071504 | 15 | 263 | 1.6 | 9.7 | 0.00 | 0.00 | 0.00 | 61 | 1018.9 |
| 20260502070003 | 14 | 238 | 1.6 | 8.0 | 0.00 | 0.00 | 0.00 | 61 | 1019.0 |
| 20260502064501 | 14 | 259 | 3.2 | 11.3 | 0.00 | 0.00 | 0.00 | 59 | 1019.4 |
| 20260502063100 | 14 | 254 | 3.2 | 11.3 | 0.00 | 0.00 | 0.00 | 58 | 1019.3 |
| 20260502061558 | 14 | 251 | 4.8 | 11.3 | 0.00 | 0.00 | 0.00 | 56 | 1019.3 |
| 20260502060055 | 13 | 245 | 4.8 | 12.9 | 0.00 | 0.00 | 0.00 | 56 | 1019.5 |
| 20260502054553 | 13 | 253 | 4.8 | 19.3 | 0.00 | 0.00 | 0.00 | 54 | 1019.4 |
| 20260502053055 | 12 | 244 | 1.6 | 11.3 | 0.00 | 0.00 | 0.00 | 54 | 1019.3 |
| 20260502051559 | 11 | 199 | 0.0 | 4.8 | 0.00 | 0.00 | 0.00 | 53 | 1019.3 |
| 20260502050049 | 11 | 240 | 1.6 | 4.8 | 0.00 | 0.00 | 0.00 | 53 | 1019.2 |
| 20260502044548 | 11 | 242 | 0.0 | 3.2 | 0.00 | 0.00 | 0.00 | 51 | 1019.2 |
| 20260502043047 | 11 | 242 | 1.6 | 4.8 | 0.00 | 0.00 | 0.00 | 50 | 1019.3 |
| 20260502041545 | 11 | 205 | 0.0 | 4.8 | 0.00 | 0.00 | 0.00 | 50 | 1019.4 |
| 20260502040044 | 11 | 251 | 3.2 | 8.0 | 0.00 | 0.00 | 0.00 | 50 | 1019.6 |
| 20260502034543 | 11 | 241 | 0.0 | 1.6 | 0.00 | 0.00 | 0.00 | 51 | 1019.6 |
| 20260502033042 | 11 | 241 | 0.0 | 3.2 | 0.00 | 0.00 | 0.00 | 51 | 1019.7 |
| 20260502031541 | 11 | 241 | 1.6 | 3.2 | 0.00 | 0.00 | 0.00 | 51 | 1019.7 |
| 20260502030045 | 10 | 241 | 0.0 | 3.2 | 0.00 | 0.00 | 0.00 | 51 | 1019.8 |
| 20260502024537 | 11 | 241 | 0.0 | 3.2 | 0.00 | 0.00 | 0.00 | 51 | 1019.9 |
| 20260502023037 | 11 | 241 | 0.0 | 6.4 | 0.00 | 0.00 | 0.00 | 50 | 1020.0 |
| 20260502021536 | 11 | 280 | 0.0 | 4.8 | 0.00 | 0.00 | 0.00 | 49 | 1020.1 |
| 20260502020035 | 11 | 236 | 3.2 | 6.4 | 0.00 | 0.00 | 0.00 | 48 | 1020.1 |
| 20260502014536 | 11 | 245 | 1.6 | 6.4 | 0.00 | 0.00 | 0.00 | 48 | 1020.3 |
| 20260502013033 | 11 | 248 | 3.2 | 11.3 | 0.00 | 0.00 | 0.00 | 48 | 1020.3 |
| 20260502011532 | 11 | 265 | 1.6 | 6.4 | 0.00 | 0.00 | 0.00 | 48 | 1020.3 |
| 20260502010031 | 11 | 238 | 0.0 | 3.2 | 0.00 | 0.00 | 0.00 | 49 | 1020.5 |
| 20260502004529 | 11 | 238 | 1.6 | 4.8 | 0.00 | 0.00 | 0.00 | 50 | 1020.5 |
| 20260502003026 | 11 | 238 | 0.0 | 0.0 | 0.00 | 0.00 | 0.00 | 50 | 1020.6 |
| 20260502001524 | 11 | 238 | 0.0 | 3.2 | 0.00 | 0.00 | 0.00 | 49 | 1020.8 |
| 20260502000020 | 12 | 238 | 0.0 | 3.2 | 0.00 | 0.00 | 0.00 | 47 | 1021.0 |
| 20260501234516 | 12 | 189 | 1.6 | 4.8 | 0.00 | 0.00 | 0.00 | 46 | 1021.2 |
| 20260501233015 | 12 | 173 | 0.0 | 3.2 | 0.00 | 0.00 | 0.00 | 45 | 1021.3 |
| 20260501231515 | 12 | 173 | 0.0 | 3.2 | 0.00 | 0.00 | 0.00 | 45 | 1021.4 |
| 20260501230016 | 12 | 173 | 0.0 | 4.8 | 0.00 | 0.00 | 0.00 | 45 | 1021.5 |
| 20260501224511 | 12 | 182 | 0.0 | 4.8 | 0.00 | 0.00 | 0.00 | 46 | 1021.6 |
| 20260501223011 | 12 | 169 | 0.0 | 8.0 | 0.00 | 0.00 | 0.00 | 46 | 1021.6 |
| 20260501221512 | 12 | 209 | 0.0 | 1.6 | 0.00 | 0.00 | 0.00 | 46 | 1021.5 |
| 20260501220012 | 12 | 209 | 0.0 | 1.6 | 0.00 | 0.00 | 0.00 | 45 | 1021.6 |
| 20260501214506 | 13 | 209 | 0.0 | 3.2 | 0.00 | 0.00 | 0.00 | 44 | 1021.6 |
| 20260501213008 | 13 | 209 | 0.0 | 3.2 | 0.00 | 0.00 | 0.00 | 44 | 1021.7 |
| 20260501211507 | 13 | 209 | 0.0 | 4.8 | 0.00 | 0.00 | 0.00 | 44 | 1021.8 |
| 20260501210006 | 13 | 196 | 0.0 | 1.6 | 0.00 | 0.00 | 0.00 | 45 | 1021.9 |
| 20260501204508 | 13 | 182 | 0.0 | 3.2 | 0.00 | 0.00 | 0.00 | 44 | 1021.9 |
| 20260501203004 | 13 | 182 | 0.0 | 3.2 | 0.00 | 0.00 | 0.00 | 43 | 1021.9 |
| 20260501201504 | 13 | 134 | 0.0 | 3.2 | 0.00 | 0.00 | 0.00 | 43 | 1021.9 |
| 20260501200003 | 13 | 134 | 0.0 | 1.6 | 0.00 | 0.00 | 0.00 | 42 | 1021.9 |
| 20260501194508 | 14 | 134 | 0.0 | 4.8 | 0.00 | 0.00 | 0.00 | 40 | 1021.9 |